AirNav   Phillips 66 Aviation Fuel
 
 1007 users online  

CYTZ Toronto/City Centre Airport
Toronto, Ontario, Canada

GOING TO TORONTO?


FAA INFORMATION EFFECTIVE 19 JULY 2018

The information below comes from the U.S. Federal Avaition Administration (FAA). The FAA is not the official source of data for facilities located outside the United States, and THESE RECORDS ARE LIKELY NOT COMPLETE OR CORRECT.

Location

FAA Identifier: CYTZ
Lat/Long: 43-37-39.0000N / 079-23-46.0000W
43-37.650000N / 079-23.766667W
43.6275000 / -79.3961111
(estimated)
Elevation: 251 ft. / 77 m (estimated)
Variation: 11W ()
Time zone: UTC -4 (UTC -5 during Standard Time)
Zip code: 14174

Airport Operations

Airport use: Open to the public
Activation date: 04/2005
Control tower: no
ARTCC: TORONTO CENTER
FSS: LONDON FIC FLIGHT SERVICE STATION
Attendance: 
Segmented circle: no

Nearby radio navigation aids

VOR radial/distance  VOR name  Freq  Var
YYZr110/10.4TORONTO VOR/DME112.1510W

Airport Services

Runway Information

Runway 8/26

Dimensions: 4000 x 150 ft. / 1219 x 46 m
Surface: asphalt
RUNWAY 8  RUNWAY 26
Traffic pattern: leftleft

Runway 6/24

Dimensions: 3000 x 150 ft. / 914 x 46 m
Surface: asphalt
RUNWAY 6  RUNWAY 24
Traffic pattern: leftleft

Runway 15/33

Dimensions: 2780 x 150 ft. / 847 x 46 m
Surface: asphalt
RUNWAY 15  RUNWAY 33
Traffic pattern: leftleft

Airport Ownership and Management from official FAA records

Ownership: Privately-owned

Instrument Procedures

There are no published instrument procedures at CYTZ.

Some nearby airports with instrument procedures:

KIAG - Niagara Falls International Airport (37 nm SE)
0G0 - North Buffalo Suburban Airport (44 nm SE)
KBUF - Buffalo Niagara International Airport (50 nm SE)
9G3 - Akron Airport (54 nm SE)
9G0 - Buffalo Airfield (55 nm SE)
 
Loc | Ops | Rwys | IFR | FBO | Links
Com | Nav | Svcs | Stats | Notes


 
Aerial photo
No photo
 
Airport distance calculator
Flying to Toronto/City Centre Airport? Find the distance to fly.

From to CYTZ

Sunrise and sunset
Times for 14-Aug-2018
 Local
(UTC-4)
 Zulu
(UTC)
Morning civil twilight05:5109:51
Sunrise06:2210:22
Sunset20:2200:22
Evening civil twilight20:5400:54

Current date and time
Zulu (UTC)  15-Aug-2018 02:23:06
Local (UTC-4)  14-Aug-2018 22:23:06
 
METAR
CYTZ 150100Z AUTO 31009G17KT 9SM CLR 28/17 A2984 RMK SLP103 DENSITY ALT 1900FT
CYYZ 
11nm W 
150100Z 30010KT 15SM FEW060 FEW260 26/16 A2986 RMK CU1CI1 CU TR SLP110 DENSITY ALT 2100FT
CYKZ 
14nm N 
150100Z 31003KT 280V340 15SM FEW220 25/19 A2986 RMK CI1 SLP110 DENSITY ALT 2100FT
TAF
CYTZ 141938Z 1420/1520 21010KT P6SM FEW050 SCT260 FM150100 29005KT P6SM SKC FM151700 28012KT P6SM FEW050 BKN240 RMK FCST BASED ON AUTO OBS. NXT FCST BY 150200Z
CYYZ 
11nm W 
142038Z 1421/1524 29012KT P6SM FEW070 SCT260 FM150100 29008KT P6SM SKC FM151700 28012KT P6SM FEW050 BKN240 RMK NXT FCST BY 150000Z
CYKZ 
14nm N 
141738Z 1418/1506 32006KT P6SM FEW050 BKN240 RMK NXT FCST BY 150000Z
NOTAMs
Click for the latest NOTAMs
NOTAMs are issued by the DoD/FAA and will open in a separate window not controlled by AirNav.

 

 
 

Would you like to see your business listed on this page?

 If your business provides an interesting product or service to pilots, flight crews, aircraft, or users of the Toronto/City Centre Airport, you should consider listing it here.  To start the listing process, click on the button below
 
Add a business
 

Other Pages about Toronto/City Centre Airport

Update a link
 
Copyright © AirNav, LLC. All rights reserved. Privacy Policy  Contact